,,PA_Meas_PMT16A,,PR_Meas_QMR101_102,,RH_Meas_QMH101,,SR_Meas_QMS101,,TA_Meas_QMH101,,GenWind,,GenWind,
time,status,PA,status,PR,status,RH,status,SR,status,TA,status,DirAvg,status,SpdAvg,
2015-04-12, 07:34:04,VALID,918.96,VALID,0,VALID,98.6699,VALID,85.0934,VALID,19.7028,VALID,145,VALID,1.88008,
2015-04-12, 07:35:04,VALID,918.974,VALID,0,VALID,98.6851,VALID,86.705,VALID,19.7028,VALID,142,VALID,2.00312,
2015-04-12, 07:36:04,VALID,918.979,VALID,0,VALID,98.6546,VALID,88.3166,VALID,19.7418,VALID,154,VALID,1.86445,
2015-04-12, 07:37:04,VALID,918.993,VALID,0,VALID,98.6851,VALID,90.1431,VALID,19.7808,VALID,157,VALID,1.09102,
2015-04-12, 07:38:04,VALID,919.005,VALID,0,VALID,98.6699,VALID,91.9696,VALID,19.7598,VALID,138,VALID,2.0543,
2015-04-12, 07:39:04,VALID,919.038,VALID,0,VALID,98.6699,VALID,93.9036,VALID,19.7988,VALID,143,VALID,1.44922,
2015-04-12, 07:40:04,VALID,919.036,VALID,0,VALID,98.6775,VALID,95.7301,VALID,19.8588,VALID,156,VALID,2.08906,
2015-04-12, 07:41:04,VALID,919.048,VALID,0,VALID,98.708,VALID,97.8789,VALID,19.8363,VALID,140,VALID,2.08945,
2015-04-12, 07:42:04,VALID,919.107,VALID,0,VALID,98.6699,VALID,99.9203,VALID,19.9743,VALID,136,VALID,1.28633,
2015-04-12, 07:43:04,VALID,919.107,VALID,0,VALID,98.647,VALID,102.069,VALID,20.0733,VALID,137,VALID,2.03242,
2015-04-12, 07:44:04,VALID,919.131,VALID,0,VALID,98.5936,VALID,104.218,VALID,20.0718,VALID,144,VALID,1.14648,
2015-04-12, 07:45:04,VALID,919.12,VALID,0,VALID,98.5327,VALID,106.474,VALID,20.0913,VALID,137,VALID,1.90039,
2015-04-12, 07:46:04,VALID,919.156,VALID,0,VALID,98.4183,VALID,108.73,VALID,20.1693,VALID,136,VALID,1.71172,
2015-04-12, 07:47:04,VALID,919.201,VALID,0,VALID,98.2506,VALID,111.094,VALID,20.2098,VALID,139,VALID,1.51602,
2015-04-12, 07:48:04,VALID,919.179,VALID,0,VALID,98.0066,VALID,113.458,VALID,20.2473,VALID,125,VALID,1.29648,
2015-04-12, 07:49:04,VALID,919.189,VALID,0,VALID,97.7551,VALID,115.714,VALID,20.2684,VALID,133,VALID,1.1125,
2015-04-12, 07:50:04,VALID,919.23,VALID,0,VALID,97.4959,VALID,118.078,VALID,20.3074,VALID,129,VALID,1.81289,
2015-04-12, 07:51:04,VALID,919.262,VALID,0,VALID,97.1223,VALID,120.549,VALID,20.3869,VALID,130,VALID,1.57344,
2015-04-12, 07:52:04,VALID,919.269,VALID,0,VALID,96.7411,VALID,122.913,VALID,20.4049,VALID,117,VALID,1.52109,
2015-04-12, 07:53:04,VALID,919.312,VALID,0,VALID,96.1389,VALID,125.062,VALID,20.4845,VALID,117,VALID,1.87344,
2015-04-12, 07:54:04,VALID,919.276,VALID,0,VALID,95.6129,VALID,127.425,VALID,20.5219,VALID,121,VALID,1.42852,
2015-04-12, 07:55:04,VALID,919.301,VALID,0,VALID,95.1707,VALID,129.789,VALID,20.5609,VALID,119,VALID,1.73164,
2015-04-12, 07:56:04,VALID,919.301,VALID,0,VALID,94.0958,VALID,132.045,VALID,20.6194,VALID,139,VALID,2.06445,
2015-04-12, 07:57:04,VALID,919.321,VALID,0,VALID,93.0819,VALID,134.409,VALID,20.717,VALID,125,VALID,1.52227,
2015-04-12, 07:58:04,VALID,919.337,VALID,0,VALID,93.5622,VALID,136.773,VALID,20.756,VALID,105,VALID,1.09727,
2015-04-12, 07:59:04,VALID,919.362,VALID,0,VALID,92.7465,VALID,138.921,VALID,20.756,VALID,129,VALID,1.65703,
2015-04-12, 08:00:04,VALID,919.369,VALID,0,VALID,93.0133,VALID,140.963,VALID,20.8145,VALID,134,VALID,1.34141,
2015-04-12, 08:01:04,VALID,919.368,VALID,0,VALID,93.2268,VALID,143.004,VALID,20.795,VALID,158,VALID,1.02773,
2015-04-12, 08:02:04,VALID,919.396,VALID,0,VALID,93.2191,VALID,145.26,VALID,20.834,VALID,106,VALID,1.22539,
2015-04-12, 08:03:04,VALID,919.382,VALID,0,VALID,93.707,VALID,147.302,VALID,20.873,VALID,145,VALID,0.791797,
2015-04-12, 08:04:04,VALID,919.4,VALID,0,VALID,93.7299,VALID,149.451,VALID,20.873,VALID,158,VALID,0.71875,
2015-04-12, 08:05:04,VALID,919.422,VALID,0,VALID,93.7833,VALID,151.599,VALID,20.9316,VALID,139,VALID,1.14141,
2015-04-12, 08:06:04,VALID,919.44,VALID,0,VALID,93.89,VALID,153.533,VALID,20.93,VALID,141,VALID,1.06719,
2015-04-12, 08:07:04,VALID,919.438,VALID,0,VALID,93.6079,VALID,155.682,VALID,20.9706,VALID,146,VALID,1.14375,
2015-04-12, 08:08:04,VALID,919.457,VALID,0,VALID,92.7007,VALID,157.724,VALID,20.9885,VALID,148,VALID,1.34102,
2015-04-12, 08:09:04,VALID,919.484,VALID,0,VALID,93.6232,VALID,159.765,VALID,21.0876,VALID,159,VALID,0.838281,
2015-04-12, 08:10:04,VALID,919.492,VALID,0,VALID,93.4783,VALID,161.699,VALID,21.0681,VALID,152,VALID,1.22969,
2015-04-12, 08:11:04,VALID,919.48,VALID,0,VALID,91.3057,VALID,164.063,VALID,21.0681,VALID,116,VALID,1.91602,
2015-04-12, 08:12:04,VALID,919.52,VALID,0,VALID,92.7998,VALID,165.782,VALID,21.1266,VALID,155,VALID,1.5375,
2015-04-12, 08:13:04,VALID,919.544,VALID,0,VALID,90.5204,VALID,167.931,VALID,21.1266,VALID,153,VALID,1.97852,
2015-04-12, 08:14:04,VALID,919.582,VALID,0,VALID,90.3527,VALID,169.972,VALID,21.1445,VALID,149,VALID,1.36758,
2015-04-12, 08:15:04,VALID,919.623,VALID,0,VALID,89.9258,VALID,172.121,VALID,21.1836,VALID,145,VALID,1.56758,
2015-04-12, 08:16:04,VALID,919.61,VALID,0,VALID,90.0325,VALID,174.055,VALID,21.2031,VALID,152,VALID,0.00195313,
2015-04-12, 08:17:04,VALID,919.65,VALID,0,VALID,89.6361,VALID,176.311,VALID,21.2437,VALID,148,VALID,1.69805,
2015-04-12, 08:18:04,VALID,919.684,VALID,0,VALID,88.6375,VALID,178.352,VALID,21.2811,VALID,158,VALID,1.46836,
2015-04-12, 08:19:04,VALID,919.698,VALID,0,VALID,88.1953,VALID,180.394,VALID,21.3591,VALID,172,VALID,1.53945,
2015-04-12, 08:20:04,VALID,919.72,VALID,0,VALID,87.6235,VALID,182.543,VALID,21.4388,VALID,159,VALID,0.0742188,
2015-04-12, 08:21:04,VALID,919.719,VALID,0,VALID,86.6859,VALID,184.369,VALID,21.4567,VALID,140,VALID,0.998047,
2015-04-12, 08:22:04,VALID,919.745,VALID,0,VALID,87.2576,VALID,185.981,VALID,21.4957,VALID,135,VALID,0,
2015-04-12, 08:23:04,VALID,919.737,VALID,0,VALID,86.5258,VALID,187.27,VALID,21.5347,VALID,148,VALID,1.14688,
2015-04-12, 08:24:04,VALID,919.772,VALID,0,VALID,85.832,VALID,188.774,VALID,21.6323,VALID,140,VALID,0,
2015-04-12, 08:25:04,VALID,919.807,VALID,0,VALID,86.4572,VALID,190.815,VALID,21.6908,VALID,139,VALID,0,
2015-04-12, 08:26:04,VALID,919.817,VALID,0,VALID,87.4863,VALID,192.427,VALID,21.7493,VALID,130,VALID,0.000390625,
2015-04-12, 08:27:04,VALID,919.849,VALID,0,VALID,86.0912,VALID,193.716,VALID,21.7298,VALID,146,VALID,0.807422,
2015-04-12, 08:28:04,VALID,919.85,VALID,0,VALID,84.841,VALID,195.006,VALID,21.6908,VALID,135,VALID,0.732422,
2015-04-12, 08:29:04,VALID,919.886,VALID,0,VALID,86.5868,VALID,197.047,VALID,21.7883,VALID,139,VALID,0,
2015-04-12, 08:30:04,VALID,919.921,VALID,0,VALID,87.8065,VALID,199.303,VALID,21.8274,VALID,155,VALID,0,
2015-04-12, 08:31:04,VALID,919.936,VALID,0,VALID,86.6859,VALID,201.56,VALID,21.8274,VALID,156,VALID,0,
2015-04-12, 08:32:04,VALID,919.935,VALID,0,VALID,87.715,VALID,203.386,VALID,21.9054,VALID,156,VALID,0,
2015-04-12, 08:33:04,VALID,919.947,VALID,0,VALID,88.0581,VALID,204.998,VALID,21.9623,VALID,189,VALID,0,
2015-04-12, 08:34:04,VALID,919.968,VALID,0,VALID,87.9209,VALID,206.717,VALID,22.0208,VALID,186,VALID,0,
2015-04-12, 08:35:04,VALID,919.974,VALID,0,VALID,87.7608,VALID,209.08,VALID,22.1005,VALID,225,VALID,0,
2015-04-12, 08:36:04,VALID,919.996,VALID,0,VALID,87.0289,VALID,211.122,VALID,22.1396,VALID,229,VALID,0,
2015-04-12, 08:37:04,VALID,919.973,VALID,0,VALID,88.302,VALID,213.486,VALID,22.1201,VALID,235,VALID,0,
2015-04-12, 08:38:04,VALID,919.999,VALID,0,VALID,88.1343,VALID,215.957,VALID,21.9835,VALID,237,VALID,0,
2015-04-12, 08:39:04,VALID,920.031,VALID,0,VALID,89.0949,VALID,218.428,VALID,21.9249,VALID,237,VALID,0,
2015-04-12, 08:40:04,VALID,920.049,VALID,0,VALID,88.7975,VALID,221.221,VALID,21.8876,VALID,234,VALID,0,
2015-04-12, 08:41:04,VALID,920.007,VALID,0,VALID,87.8904,VALID,223.37,VALID,21.7298,VALID,217,VALID,0,
2015-04-12, 08:42:04,VALID,920.05,VALID,0,VALID,88.9348,VALID,225.412,VALID,21.6729,VALID,243,VALID,0,
2015-04-12, 08:43:04,VALID,920.073,VALID,0,VALID,90.7568,VALID,227.775,VALID,21.6339,VALID,243,VALID,0,
2015-04-12, 08:44:04,VALID,920.085,VALID,0,VALID,91.9003,VALID,229.709,VALID,21.6518,VALID,243,VALID,0,
2015-04-12, 08:45:04,VALID,920.111,VALID,0,VALID,92.4797,VALID,231.213,VALID,21.7103,VALID,243,VALID,0,
2015-04-12, 08:46:04,VALID,920.131,VALID,0,VALID,92.1976,VALID,231.751,VALID,21.7103,VALID,213,VALID,0,
2015-04-12, 08:47:04,VALID,920.138,VALID,0,VALID,92.0223,VALID,234.544,VALID,21.751,VALID,219,VALID,0,
2015-04-12, 08:48:04,VALID,920.166,VALID,0,VALID,92.3119,VALID,236.693,VALID,21.7867,VALID,219,VALID,0,
2015-04-12, 08:49:04,VALID,920.205,VALID,0,VALID,92.129,VALID,239.594,VALID,21.9249,VALID,189,VALID,0,
2015-04-12, 08:50:04,VALID,920.236,VALID,0,VALID,90.8254,VALID,243.462,VALID,22.0208,VALID,187,VALID,0,
2015-04-12, 08:51:04,VALID,920.217,VALID,0,VALID,88.8509,VALID,250.66,VALID,22.1591,VALID,154,VALID,0,
2015-04-12, 08:52:04,VALID,920.2,VALID,0,VALID,87.5321,VALID,254.313,VALID,22.2745,VALID,198,VALID,0,
2015-04-12, 08:53:04,VALID,920.225,VALID,0,VALID,86.3733,VALID,256.784,VALID,22.372,VALID,199,VALID,0,
2015-04-12, 08:54:04,VALID,920.214,VALID,0,VALID,85.3594,VALID,255.173,VALID,22.4501,VALID,175,VALID,0,
2015-04-12, 08:55:04,VALID,920.223,VALID,0,VALID,85.2984,VALID,258.181,VALID,22.5281,VALID,196,VALID,0,
2015-04-12, 08:56:04,VALID,920.221,VALID,0,VALID,85.8244,VALID,256.569,VALID,22.5477,VALID,219,VALID,0,
2015-04-12, 08:57:04,VALID,920.254,VALID,0,VALID,85.8015,VALID,260.115,VALID,22.5281,VALID,193,VALID,0,
2015-04-12, 08:58:04,VALID,920.262,VALID,0,VALID,87.0213,VALID,264.52,VALID,22.5672,VALID,215,VALID,0,
2015-04-12, 08:59:04,VALID,920.287,VALID,0,VALID,87.433,VALID,267.528,VALID,22.4501,VALID,226,VALID,0,
2015-04-12, 09:00:04,VALID,920.277,VALID,0,VALID,88.1953,VALID,269.355,VALID,22.2745,VALID,226,VALID,0,
2015-04-12, 09:01:04,VALID,920.284,VALID,0,VALID,89.4989,VALID,271.934,VALID,22.1981,VALID,226,VALID,0,
2015-04-12, 09:02:04,VALID,920.295,VALID,0,VALID,90.0783,VALID,272.901,VALID,22.1574,VALID,252,VALID,0,
2015-04-12, 09:03:04,VALID,920.256,VALID,0,VALID,89.9639,VALID,275.801,VALID,22.1752,VALID,172,VALID,0,
2015-04-12, 09:04:04,VALID,920.264,VALID,0,VALID,86.6096,VALID,275.587,VALID,22.2957,VALID,171,VALID,0,
2015-04-12, 09:05:04,VALID,920.281,VALID,0,VALID,86.0531,VALID,278.058,VALID,22.3737,VALID,162,VALID,0,
2015-04-12, 09:06:04,VALID,920.264,VALID,0,VALID,86.3657,VALID,282.14,VALID,22.4518,VALID,159,VALID,0,
2015-04-12, 09:07:04,VALID,920.284,VALID,0,VALID,85.611,VALID,283.967,VALID,22.5494,VALID,162,VALID,0,
2015-04-12, 09:08:04,VALID,920.297,VALID,0,VALID,85.1383,VALID,278.058,VALID,22.6274,VALID,154,VALID,0.00507812,
2015-04-12, 09:09:04,VALID,920.32,VALID,0,VALID,85.4432,VALID,274.62,VALID,22.686,VALID,152,VALID,0,
2015-04-12, 09:10:04,VALID,920.312,VALID,0,VALID,85.4051,VALID,274.297,VALID,22.7233,VALID,139,VALID,0,
2015-04-12, 09:11:04,VALID,920.341,VALID,0,VALID,85.5271,VALID,272.363,VALID,22.8014,VALID,172,VALID,0,
2015-04-12, 09:12:04,VALID,920.343,VALID,0,VALID,84.5056,VALID,268.495,VALID,22.8794,VALID,204,VALID,0,
2015-04-12, 09:13:04,VALID,920.322,VALID,0,VALID,84.2387,VALID,273.115,VALID,22.9592,VALID,169,VALID,0,
2015-04-12, 09:14:04,VALID,920.326,VALID,0,VALID,83.3392,VALID,274.942,VALID,22.9965,VALID,177,VALID,0,
2015-04-12, 09:15:04,VALID,920.37,VALID,0,VALID,83.3925,VALID,276.661,VALID,23.0746,VALID,147,VALID,0,
2015-04-12, 09:16:04,VALID,920.384,VALID,0,VALID,84.2159,VALID,272.686,VALID,23.1331,VALID,158,VALID,0,
2015-04-12, 09:17:04,VALID,920.389,VALID,0,VALID,83.5679,VALID,266.776,VALID,23.2538,VALID,156,VALID,0,
2015-04-12, 09:18:04,VALID,920.427,VALID,0,VALID,82.5082,VALID,265.487,VALID,23.1917,VALID,159,VALID,0,
2015-04-12, 09:19:04,VALID,920.427,VALID,0,VALID,83.5603,VALID,260.76,VALID,23.1917,VALID,159,VALID,0,
2015-04-12, 09:20:04,VALID,920.457,VALID,0,VALID,83.6899,VALID,267.958,VALID,23.307,VALID,159,VALID,0,
2015-04-12, 09:21:04,VALID,920.469,VALID,0,VALID,83.0647,VALID,266.884,VALID,23.4259,VALID,168,VALID,0,
2015-04-12, 09:22:04,VALID,920.497,VALID,0,VALID,82.4549,VALID,265.702,VALID,23.3656,VALID,174,VALID,0,
2015-04-12, 09:23:04,VALID,920.503,VALID,0,VALID,83.606,VALID,231.751,VALID,23.4632,VALID,174,VALID,0,
2015-04-12, 09:24:04,VALID,920.503,VALID,0,VALID,82.1499,VALID,266.024,VALID,23.5412,VALID,179,VALID,0,
2015-04-12, 09:25:04,VALID,920.541,VALID,0,VALID,81.1665,VALID,275.372,VALID,23.5217,VALID,180,VALID,0,
2015-04-12, 09:26:04,VALID,920.531,VALID,0,VALID,81.5782,VALID,268.925,VALID,23.5022,VALID,179,VALID,0,
2015-04-12, 09:27:04,VALID,920.529,VALID,0,VALID,82.2338,VALID,282.248,VALID,23.4827,VALID,165,VALID,0,
2015-04-12, 09:28:04,VALID,920.487,VALID,0,VALID,81.5858,VALID,285.256,VALID,23.4632,VALID,181,VALID,0,
2015-04-12, 09:29:04,VALID,920.489,VALID,0,VALID,81.5324,VALID,296.215,VALID,23.4224,VALID,171,VALID,0,
2015-04-12, 09:30:04,VALID,920.48,VALID,0,VALID,81.7459,VALID,297.182,VALID,23.4437,VALID,219,VALID,0,
2015-04-12, 09:31:04,VALID,920.474,VALID,0,VALID,82.249,VALID,305.133,VALID,23.4809,VALID,189,VALID,0,
2015-04-12, 09:32:04,VALID,920.462,VALID,0,VALID,81.845,VALID,308.464,VALID,23.559,VALID,155,VALID,0,
2015-04-12, 09:33:04,VALID,920.487,VALID,0,VALID,81.38,VALID,313.836,VALID,23.637,VALID,195,VALID,0,
2015-04-12, 09:34:04,VALID,920.465,VALID,0,VALID,81.4791,VALID,314.803,VALID,23.7382,VALID,167,VALID,0,
2015-04-12, 09:35:04,VALID,920.476,VALID,0,VALID,80.9302,VALID,323.828,VALID,23.7773,VALID,198,VALID,0,
2015-04-12, 09:36:04,VALID,920.467,VALID,0,VALID,80.9226,VALID,328.125,VALID,23.834,VALID,193,VALID,0,
2015-04-12, 09:37:04,VALID,920.482,VALID,0,VALID,80.6862,VALID,338.869,VALID,23.9139,VALID,165,VALID,0,
2015-04-12, 09:38:04,VALID,920.48,VALID,0,VALID,79.8172,VALID,348.324,VALID,23.9316,VALID,163,VALID,0,
2015-04-12, 09:39:04,VALID,920.502,VALID,0,VALID,79.0243,VALID,350.258,VALID,23.9512,VALID,184,VALID,0,
2015-04-12, 09:40:04,VALID,920.526,VALID,0,VALID,78.9633,VALID,357.242,VALID,23.9316,VALID,172,VALID,0,
2015-04-12, 09:41:04,VALID,920.501,VALID,0,VALID,79.3064,VALID,364.978,VALID,23.9902,VALID,168,VALID,0,
2015-04-12, 09:42:04,VALID,920.484,VALID,0,VALID,78.1324,VALID,355.308,VALID,23.9121,VALID,145,VALID,0,
2015-04-12, 09:43:04,VALID,920.496,VALID,0,VALID,78.1019,VALID,359.498,VALID,23.953,VALID,179,VALID,0,
2015-04-12, 09:44:04,VALID,920.489,VALID,0,VALID,79.5275,VALID,382.168,VALID,23.9707,VALID,135,VALID,0,
2015-04-12, 09:45:04,VALID,920.499,VALID,0,VALID,78.6508,VALID,387.863,VALID,24.0488,VALID,186,VALID,0,
2015-04-12, 09:46:04,VALID,920.522,VALID,0,VALID,79.7867,VALID,392.483,VALID,24.1073,VALID,170,VALID,0,
2015-04-12, 09:47:04,VALID,920.505,VALID,0,VALID,78.9786,VALID,394.631,VALID,24.1659,VALID,153,VALID,0,
2015-04-12, 09:48:04,VALID,920.48,VALID,0,VALID,77.5454,VALID,393.342,VALID,24.2635,VALID,139,VALID,0,
2015-04-12, 09:49:04,VALID,920.492,VALID,0,VALID,77.675,VALID,392.053,VALID,24.244,VALID,190,VALID,0,
2015-04-12, 09:50:04,VALID,920.523,VALID,0,VALID,76.4247,VALID,395.383,VALID,24.3416,VALID,190,VALID,0,
2015-04-12, 09:51:04,VALID,920.513,VALID,0,VALID,77.0194,VALID,398.607,VALID,24.4569,VALID,160,VALID,0,
2015-04-12, 09:52:04,VALID,920.538,VALID,0,VALID,77.736,VALID,404.623,VALID,24.4745,VALID,132,VALID,0,
2015-04-12, 09:53:04,VALID,920.522,VALID,0,VALID,76.8212,VALID,399.896,VALID,24.6363,VALID,166,VALID,0,
2015-04-12, 09:54:04,VALID,920.512,VALID,0,VALID,74.9687,VALID,389.259,VALID,24.6735,VALID,185,VALID,0,
2015-04-12, 09:55:04,VALID,920.502,VALID,0,VALID,76.379,VALID,399.251,VALID,24.7107,VALID,183,VALID,0,
2015-04-12, 09:56:04,VALID,920.513,VALID,0,VALID,73.4059,VALID,395.921,VALID,24.8297,VALID,158,VALID,0,
2015-04-12, 09:57:04,VALID,920.515,VALID,0,VALID,72.9485,VALID,408.599,VALID,24.8297,VALID,198,VALID,0,
2015-04-12, 09:58:04,VALID,920.534,VALID,0,VALID,73.6346,VALID,395.276,VALID,24.9469,VALID,199,VALID,0,
2015-04-12, 09:59:04,VALID,920.532,VALID,0,VALID,75.0754,VALID,410.103,VALID,24.984,VALID,190,VALID,0,
2015-04-12, 10:00:04,VALID,920.512,VALID,0,VALID,75.7386,VALID,435.352,VALID,24.9664,VALID,209,VALID,0,
2015-04-12, 10:01:04,VALID,920.534,VALID,0,VALID,75.7005,VALID,471.774,VALID,24.7693,VALID,236,VALID,0,
2015-04-12, 10:02:04,VALID,920.515,VALID,0,VALID,79.5503,VALID,492.295,VALID,24.5954,VALID,246,VALID,0,
2015-04-12, 10:03:04,VALID,920.479,VALID,0,VALID,79.3216,VALID,489.932,VALID,24.3983,VALID,246,VALID,0,
2015-04-12, 10:04:04,VALID,920.497,VALID,0,VALID,80.2517,VALID,488.213,VALID,24.3593,VALID,282,VALID,0,
2015-04-12, 10:05:04,VALID,920.457,VALID,0,VALID,81.197,VALID,521.197,VALID,24.3983,VALID,282,VALID,0,
2015-04-12, 10:06:04,VALID,920.481,VALID,0,VALID,81.0369,VALID,413.648,VALID,24.4569,VALID,282,VALID,0,
2015-04-12, 10:07:04,VALID,920.463,VALID,0,VALID,82.1804,VALID,533.553,VALID,24.574,VALID,282,VALID,0,
2015-04-12, 10:08:04,VALID,920.477,VALID,0,VALID,79.5808,VALID,594.902,VALID,24.6716,VALID,253,VALID,0,
2015-04-12, 10:09:04,VALID,920.489,VALID,0,VALID,79.1616,VALID,608.439,VALID,24.5935,VALID,267,VALID,0,
2015-04-12, 10:10:04,VALID,920.471,VALID,0,VALID,80.9378,VALID,628.746,VALID,24.5155,VALID,297,VALID,0,
2015-04-12, 10:11:04,VALID,920.506,VALID,0,VALID,81.1284,VALID,522.486,VALID,24.6345,VALID,302,VALID,0,
2015-04-12, 10:12:04,VALID,920.484,VALID,0,VALID,80.1907,VALID,623.911,VALID,24.7321,VALID,308,VALID,0.00195313,
2015-04-12, 10:13:04,VALID,920.464,VALID,0,VALID,79.1463,VALID,497.238,VALID,24.7711,VALID,309,VALID,0,
2015-04-12, 10:14:04,VALID,920.424,VALID,0,VALID,79.3826,VALID,345.101,VALID,24.6735,VALID,317,VALID,0,
2015-04-12, 10:15:04,VALID,920.41,VALID,0,VALID,80.1678,VALID,377.011,VALID,24.6345,VALID,236,VALID,0,
2015-04-12, 10:16:04,VALID,920.404,VALID,0,VALID,79.7028,VALID,439.542,VALID,24.6149,VALID,253,VALID,0,
2015-04-12, 10:17:04,VALID,920.432,VALID,0,VALID,80.3203,VALID,497.775,VALID,24.5564,VALID,233,VALID,0,
2015-04-12, 10:18:04,VALID,920.429,VALID,0,VALID,81.6773,VALID,415.475,VALID,24.6735,VALID,235,VALID,0,
2015-04-12, 10:19:04,VALID,920.387,VALID,0,VALID,80.549,VALID,472.956,VALID,24.6735,VALID,235,VALID,0,
2015-04-12, 10:20:04,VALID,920.353,VALID,0,VALID,80.4118,VALID,546.338,VALID,24.693,VALID,235,VALID,0,
2015-04-12, 10:21:04,VALID,920.322,VALID,0,VALID,79.253,VALID,595.546,VALID,24.7497,VALID,259,VALID,0,
2015-04-12, 10:22:04,VALID,920.291,VALID,0,VALID,80.6024,VALID,588.67,VALID,24.7302,VALID,269,VALID,0,
2015-04-12, 10:23:04,VALID,920.288,VALID,0,VALID,79.0701,VALID,519.263,VALID,24.7907,VALID,309,VALID,0,
2015-04-12, 10:24:04,VALID,920.252,VALID,0,VALID,78.9176,VALID,924.531,VALID,24.7302,VALID,310,VALID,0,
2015-04-12, 10:25:04,VALID,920.233,VALID,0,VALID,79.3064,VALID,903.688,VALID,24.7888,VALID,301,VALID,0,
2015-04-12, 10:26:04,VALID,920.232,VALID,0,VALID,79.3216,VALID,655.391,VALID,24.8864,VALID,271,VALID,0,
2015-04-12, 10:27:04,VALID,920.224,VALID,0,VALID,77.4692,VALID,442.335,VALID,25.0036,VALID,241,VALID,0.149219,
2015-04-12, 10:28:04,VALID,920.215,VALID,0,VALID,78.5593,VALID,476.179,VALID,24.9078,VALID,247,VALID,0,
2015-04-12, 10:29:04,VALID,920.239,VALID,0,VALID,79.497,VALID,644.11,VALID,24.7693,VALID,247,VALID,0,
2015-04-12, 10:30:04,VALID,920.214,VALID,0,VALID,79.962,VALID,778.733,VALID,24.7888,VALID,250,VALID,0,
2015-04-12, 10:31:04,VALID,920.237,VALID,0,VALID,78.8947,VALID,986.632,VALID,24.9255,VALID,251,VALID,0,
2015-04-12, 10:32:04,VALID,920.213,VALID,0,VALID,78.4221,VALID,964.714,VALID,25.2379,VALID,253,VALID,0,
2015-04-12, 10:33:04,VALID,920.212,VALID,0,VALID,76.9965,VALID,493.37,VALID,25.5327,VALID,269,VALID,0,
2015-04-12, 10:34:04,VALID,920.225,VALID,0,VALID,75.5252,VALID,441.046,VALID,25.3941,VALID,253,VALID,0,
2015-04-12, 10:35:04,VALID,920.211,VALID,0,VALID,76.844,VALID,366.482,VALID,25.3355,VALID,215,VALID,0,
2015-04-12, 10:36:04,VALID,920.196,VALID,0,VALID,77.3624,VALID,362.184,VALID,25.4351,VALID,186,VALID,0,
2015-04-12, 10:37:04,VALID,920.18,VALID,0,VALID,75.0144,VALID,319.423,VALID,25.4898,VALID,329,VALID,0,
2015-04-12, 10:38:04,VALID,920.22,VALID,0,VALID,76.9584,VALID,334.357,VALID,25.3726,VALID,307,VALID,0,
2015-04-12, 10:39:04,VALID,920.192,VALID,0,VALID,76.4629,VALID,389.689,VALID,25.1383,VALID,257,VALID,0,
2015-04-12, 10:40:04,VALID,920.186,VALID,0,VALID,77.2709,VALID,451.683,VALID,25.1188,VALID,257,VALID,0,
2015-04-12, 10:41:04,VALID,920.168,VALID,0,VALID,76.623,VALID,485.741,VALID,25.2164,VALID,259,VALID,0,
2015-04-12, 10:42:04,VALID,920.145,VALID,0,VALID,76.4705,VALID,469.84,VALID,25.2183,VALID,270,VALID,0,
2015-04-12, 10:43:04,VALID,920.108,VALID,0,VALID,77.9799,VALID,410.962,VALID,25.1793,VALID,281,VALID,0,
2015-04-12, 10:44:04,VALID,920.071,VALID,0,VALID,77.5454,VALID,374.11,VALID,25.1793,VALID,314,VALID,0.117969,
2015-04-12, 10:45:04,VALID,920.096,VALID,0,VALID,76.7144,VALID,325.547,VALID,25.1383,VALID,293,VALID,0,
2015-04-12, 10:46:04,VALID,920.053,VALID,0,VALID,77.9113,VALID,335.646,VALID,25.195,VALID,293,VALID,0,
2015-04-12, 10:47:04,VALID,920.04,VALID,0,VALID,78.5898,VALID,273.867,VALID,25.3922,VALID,293,VALID,0,
2015-04-12, 10:48:04,VALID,920.044,VALID,0,VALID,76.6077,VALID,268.925,VALID,25.3336,VALID,265,VALID,0,
2015-04-12, 10:49:04,VALID,920.01,VALID,0,VALID,79.2149,VALID,270.644,VALID,25.2965,VALID,269,VALID,0,
2015-04-12, 10:50:04,VALID,919.977,VALID,0,VALID,76.9965,VALID,256.462,VALID,25.3941,VALID,262,VALID,0,
2015-04-12, 10:51:04,VALID,919.985,VALID,0,VALID,77.3243,VALID,259.255,VALID,25.4331,VALID,262,VALID,0,
2015-04-12, 10:52:04,VALID,919.945,VALID,0,VALID,76.7678,VALID,348.861,VALID,25.4331,VALID,285,VALID,0,
2015-04-12, 10:53:04,VALID,919.955,VALID,0,VALID,75.205,VALID,338.762,VALID,25.3746,VALID,286,VALID,0,
2015-04-12, 10:54:04,VALID,919.943,VALID,0,VALID,75.5099,VALID,369.275,VALID,25.355,VALID,11,VALID,0,
2015-04-12, 10:55:04,VALID,919.918,VALID,0,VALID,76.6382,VALID,907.448,VALID,25.4331,VALID,3,VALID,0,
2015-04-12, 10:56:04,VALID,919.897,VALID,0,VALID,75.1593,VALID,411.392,VALID,25.3726,VALID,324,VALID,0,
2015-04-12, 10:57:04,VALID,919.875,VALID,0,VALID,76.2647,VALID,919.159,VALID,25.2574,VALID,324,VALID,0,
2015-04-12, 10:58:04,VALID,919.873,VALID,0,VALID,75.3803,VALID,590.174,VALID,25.2379,VALID,324,VALID,0,
2015-04-12, 10:59:04,VALID,919.834,VALID,0,VALID,74.8086,VALID,583.943,VALID,25.2574,VALID,325,VALID,0,
2015-04-12, 11:00:04,VALID,919.81,VALID,0,VALID,75.9216,VALID,359.283,VALID,25.316,VALID,324,VALID,0,
2015-04-12, 11:01:04,VALID,919.785,VALID,0,VALID,75.4871,VALID,376.474,VALID,25.3922,VALID,10,VALID,0,
2015-04-12, 11:02:04,VALID,919.799,VALID,0,VALID,74.4045,VALID,383.672,VALID,25.5503,VALID,324,VALID,0,
2015-04-12, 11:03:04,VALID,919.781,VALID,0,VALID,74.679,VALID,387.11,VALID,25.3941,VALID,324,VALID,0,
2015-04-12, 11:04:04,VALID,919.792,VALID,0,VALID,75.9826,VALID,360.68,VALID,25.2769,VALID,309,VALID,0,
2015-04-12, 11:05:04,VALID,919.834,VALID,0,VALID,75.8911,VALID,429.12,VALID,25.1793,VALID,314,VALID,0,
2015-04-12, 11:06:04,VALID,919.803,VALID,0,VALID,76.4247,VALID,435.889,VALID,25.1402,VALID,314,VALID,0,
2015-04-12, 11:07:04,VALID,919.802,VALID,0,VALID,74.7781,VALID,370.994,VALID,25.1598,VALID,282,VALID,0,
2015-04-12, 11:08:04,VALID,919.779,VALID,0,VALID,77.0194,VALID,360.035,VALID,25.0426,VALID,320,VALID,0,
2015-04-12, 11:09:04,VALID,919.79,VALID,0,VALID,76.8669,VALID,401.937,VALID,25.0036,VALID,320,VALID,0,
2015-04-12, 11:10:04,VALID,919.792,VALID,0,VALID,76.7449,VALID,494.874,VALID,25.0231,VALID,315,VALID,0,
2015-04-12, 11:11:04,VALID,919.743,VALID,0,VALID,75.3422,VALID,439.864,VALID,25.1793,VALID,289,VALID,0,
2015-04-12, 11:12:04,VALID,919.729,VALID,0,VALID,74.1835,VALID,471.667,VALID,25.2574,VALID,278,VALID,0,
2015-04-12, 11:13:04,VALID,919.716,VALID,0,VALID,73.5126,VALID,440.724,VALID,25.4722,VALID,278,VALID,0,
2015-04-12, 11:14:04,VALID,919.713,VALID,0,VALID,72.9103,VALID,404.301,VALID,25.6675,VALID,278,VALID,0,
2015-04-12, 11:15:04,VALID,919.659,VALID,0,VALID,72.1023,VALID,767.882,VALID,25.8628,VALID,268,VALID,0,
2015-04-12, 11:16:04,VALID,919.623,VALID,0,VALID,69.5484,VALID,494.229,VALID,25.8823,VALID,251,VALID,0,
2015-04-12, 11:17:04,VALID,919.606,VALID,0,VALID,71.7135,VALID,701.161,VALID,25.9604,VALID,191,VALID,0.213672,